Weather History for KLBL - October, 2013

Change the Weather History Date:

Friday, October 25, 2013

  Actual Average Record
Temperature  
Mean Temperature 50 °F -  
Max Temperature 66 °F 69 °F 92 °F (1959)
Min Temperature 33 °F 41 °F 23 °F (1975)
Degree Days  
Heating Degree Days 16    
Moisture  
Dew Point 35 °F    
Average Humidity 60    
Maximum Humidity 81    
Minimum Humidity 40    
Precipitation  
Precipitation 0.00 in - - ()
Sea Level Pressure  
Sea Level Pressure 30.27 in    
Wind  
Wind Speed 11 mph (South)    
Max Wind Speed 22 mph    
Max Gust Speed 29 mph    
Visibility 10 miles    
Events      
Averages and records for this station are not official NWS values.
T = Trace of Precipitation, MM = Missing Value Source: NWS Daily Summary

Daily Weather History Graph

Daily Weather History Graph

Search for Another Location

Airport or City:

Trip Planner

Search our weather history database for the weather conditions in past years. The results will help you decide how hot, cold, wet, or windy it might be!

Date:

Astronomy

Oct. 25, 2013 Rise Set
Actual Time 8:01 AM CDT 6:53 PM CDT
Civil Twilight 7:34 AM CDT 7:20 PM CDT
Nautical Twilight 7:04 AM CDT 7:50 PM CDT
Astronomical Twilight 6:34 AM CDT 8:20 PM CDT
Moon No Moon Rise 1:40 PM CDT (10/25)
Length of Visible Light 11h 45m
Length of Day
10h 52m
Waning Gibbous, 62% of the Moon is Illuminated
Oct 25
Waning Gibbous
Oct 26
Last Quarter
Nov 3
New
Nov 9
First Quarter
Nov 17
Full

Hourly Weather History & Observations

Time (CDT) Temp. Windchill Dew Point Humidity Pressure Visibility Wind Dir Wind Speed Gust Speed Precip Events Conditions
12:15 AM 42.8 °F 37.0 °F 30.2 °F 61% 30.37 in 10.0 mi ESE 10.4 mph - N/A   Clear
12:35 AM 41.0 °F 35.2 °F 30.2 °F 65% 30.37 in 10.0 mi ESE 9.2 mph - N/A   Clear
12:55 AM 41.0 °F 35.2 °F 30.2 °F 65% 30.37 in 10.0 mi ESE 9.2 mph - N/A   Clear
1:15 AM 41.0 °F 34.7 °F 30.2 °F 65% 30.37 in 10.0 mi ESE 10.4 mph - N/A   Clear
1:35 AM 39.2 °F 33.6 °F 30.2 °F 70% 30.37 in 10.0 mi ESE 8.1 mph - N/A   Clear
1:55 AM 39.2 °F 33.6 °F 30.2 °F 70% 30.37 in 10.0 mi SE 8.1 mph - N/A   Clear
2:15 AM 39.2 °F 33.6 °F 28.4 °F 65% 30.38 in 10.0 mi ESE 8.1 mph - N/A   Clear
2:35 AM 37.4 °F 31.4 °F 28.4 °F 70% 30.38 in 10.0 mi ESE 8.1 mph - N/A   Clear
2:55 AM 37.4 °F 31.4 °F 28.4 °F 70% 30.38 in 10.0 mi SE 8.1 mph - N/A   Clear
3:15 AM 37.4 °F 32.1 °F 28.4 °F 70% 30.38 in 10.0 mi SE 6.9 mph - N/A   Clear
3:35 AM 37.4 °F 32.1 °F 28.4 °F 70% 30.38 in 10.0 mi SE 6.9 mph - N/A   Clear
3:55 AM 35.6 °F 30.7 °F 28.4 °F 75% 30.39 in 10.0 mi SE 5.8 mph - N/A   Clear
4:15 AM 35.6 °F 31.7 °F 26.6 °F 70% 30.38 in 10.0 mi SSE 4.6 mph - N/A   Clear
4:35 AM 35.6 °F 31.7 °F 28.4 °F 75% 30.38 in 10.0 mi SSE 4.6 mph - N/A   Clear
4:55 AM 33.8 °F 29.6 °F 28.4 °F 81% 30.38 in 10.0 mi SSE 4.6 mph - N/A   Clear
5:15 AM 33.8 °F 28.6 °F 28.4 °F 81% 30.37 in 10.0 mi SSE 5.8 mph - N/A   Clear
5:35 AM 33.8 °F 28.6 °F 28.4 °F 81% 30.37 in 10.0 mi SSE 5.8 mph - N/A   Clear
5:55 AM 33.8 °F 27.0 °F 26.6 °F 75% 30.38 in 10.0 mi South 8.1 mph - N/A   Clear
6:15 AM 35.6 °F 29.2 °F 28.4 °F 75% 30.38 in 10.0 mi South 8.1 mph - N/A   Clear
6:35 AM 33.8 °F 27.7 °F 28.4 °F 81% 30.38 in 10.0 mi South 6.9 mph - N/A   Clear
6:55 AM 33.8 °F 27.0 °F 26.6 °F 75% 30.37 in 10.0 mi South 8.1 mph - N/A   Clear
7:15 AM 33.8 °F 27.0 °F 28.4 °F 81% 30.37 in 10.0 mi South 8.1 mph - N/A   Clear
7:35 AM 33.8 °F 27.0 °F 28.4 °F 81% 30.37 in 10.0 mi South 8.1 mph - N/A   Clear
7:55 AM 33.8 °F 26.4 °F 28.4 °F 81% 30.37 in 10.0 mi South 9.2 mph - N/A   Clear
8:15 AM 33.8 °F 25.8 °F 28.4 °F 81% 30.37 in 10.0 mi South 10.4 mph - N/A   Clear
8:35 AM 35.6 °F 27.5 °F 28.4 °F 75% 30.37 in 10.0 mi South 11.5 mph - N/A   Clear
8:55 AM 35.6 °F 27.5 °F 30.2 °F 81% 30.37 in 10.0 mi South 11.5 mph - N/A   Clear
9:15 AM 37.4 °F 30.3 °F 30.2 °F 75% 30.38 in 10.0 mi South 10.4 mph - N/A   Scattered Clouds
9:35 AM 41.0 °F 32.2 °F 33.8 °F 76% 30.38 in 10.0 mi South 18.4 mph - N/A   Scattered Clouds
9:55 AM 44.6 °F 36.4 °F 33.8 °F 66% 30.38 in 10.0 mi South 20.7 mph - N/A   Scattered Clouds
10:15 AM 44.6 °F 36.6 °F 33.8 °F 66% 30.37 in 10.0 mi South 19.6 mph - N/A   Clear
10:35 AM 44.6 °F 36.4 °F 33.8 °F 66% 30.36 in 10.0 mi South 20.7 mph - N/A   Clear
10:55 AM 46.4 °F 38.7 °F 33.8 °F 62% 30.35 in 10.0 mi South 20.7 mph - N/A   Clear
11:15 AM 48.2 °F - 33.8 °F 58% 30.34 in 10.0 mi South 20.7 mph 24.2 mph N/A   Clear
11:35 AM 48.2 °F - 33.8 °F 58% 30.32 in 10.0 mi South 20.7 mph - N/A   Clear
11:55 AM 50.0 °F - 33.8 °F 54% 30.32 in 10.0 mi South 20.7 mph 26.5 mph N/A   Clear
12:15 PM 53.6 °F - 33.8 °F 47% 30.30 in 10.0 mi South 21.9 mph 26.5 mph N/A   Clear
12:35 PM 55.4 °F - 33.8 °F 44% 30.30 in 10.0 mi South 18.4 mph 24.2 mph N/A   Clear
12:55 PM 55.4 °F - 35.6 °F 47% 30.29 in 10.0 mi South 19.6 mph 26.5 mph N/A   Clear
1:15 PM 57.2 °F - 35.6 °F 44% 30.27 in 10.0 mi SSW 21.9 mph 25.3 mph N/A   Clear
1:35 PM 59.0 °F - 37.4 °F 45% 30.26 in 10.0 mi South 20.7 mph 28.8 mph N/A   Clear
1:55 PM 59.0 °F - 37.4 °F 45% 30.24 in 10.0 mi South 20.7 mph 26.5 mph N/A   Clear
2:15 PM 60.8 °F - 37.4 °F 42% 30.23 in 10.0 mi South 19.6 mph 25.3 mph N/A   Clear
2:35 PM 60.8 °F - 37.4 °F 42% 30.21 in 10.0 mi SSW 20.7 mph 25.3 mph N/A   Clear
2:55 PM 59.0 °F - 37.4 °F 45% 30.20 in 10.0 mi South 18.4 mph 23.0 mph N/A   Clear
3:15 PM 60.8 °F - 37.4 °F 42% 30.18 in 10.0 mi South 16.1 mph - N/A   Clear
3:35 PM 64.4 °F - 39.2 °F 40% 30.17 in 10.0 mi SSW 15.0 mph 24.2 mph N/A   Clear
3:55 PM 66.2 °F - 41.0 °F 40% 30.16 in 10.0 mi SSW 20.7 mph 26.5 mph N/A   Clear
4:15 PM 66.2 °F - 41.0 °F 40% 30.16 in 10.0 mi SSW 18.4 mph - N/A   Clear
4:35 PM 64.4 °F - 39.2 °F 40% 30.16 in 10.0 mi SSW 15.0 mph - N/A   Clear
4:55 PM 64.4 °F - 39.2 °F 40% 30.15 in 10.0 mi SW 16.1 mph - N/A   Clear
5:15 PM 64.4 °F - 39.2 °F 40% 30.15 in 10.0 mi SSW 16.1 mph 23.0 mph N/A   Clear
5:35 PM 62.6 °F - 39.2 °F 42% 30.14 in 10.0 mi SSW 12.7 mph - N/A   Clear
5:55 PM 64.4 °F - 41.0 °F 42% 30.13 in 10.0 mi South 13.8 mph - N/A   Clear
6:15 PM 64.4 °F - 41.0 °F 42% 30.13 in 10.0 mi SSW 15.0 mph 19.6 mph N/A   Clear
6:35 PM 62.6 °F - 39.2 °F 42% 30.13 in 10.0 mi SSW 13.8 mph - N/A   Clear
6:55 PM 60.8 °F - 39.2 °F 45% 30.13 in 10.0 mi South 10.4 mph - N/A   Scattered Clouds
7:15 PM 59.0 °F - 39.2 °F 48% 30.13 in 10.0 mi South 9.2 mph - N/A   Scattered Clouds
7:35 PM 57.2 °F - 39.2 °F 51% 30.13 in 10.0 mi SSE 6.9 mph - N/A   Partly Cloudy
7:55 PM 55.4 °F - 39.2 °F 54% 30.13 in 10.0 mi SSE 8.1 mph - N/A   Clear
8:15 PM 55.4 °F - 39.2 °F 54% 30.13 in 10.0 mi SSE 8.1 mph - N/A   Clear
8:35 PM 55.4 °F - 39.2 °F 54% 30.13 in 10.0 mi SSE 10.4 mph - N/A   Clear
8:55 PM 53.6 °F - 39.2 °F 58% 30.13 in 10.0 mi South 12.7 mph - N/A   Clear
9:15 PM 55.4 °F - 41.0 °F 58% 30.13 in 10.0 mi South 11.5 mph - N/A   Clear
9:35 PM 55.4 °F - 41.0 °F 58% 30.13 in 10.0 mi South 12.7 mph - N/A   Clear
9:55 PM 55.4 °F - 41.0 °F 58% 30.13 in 10.0 mi South 15.0 mph - N/A   Clear
10:15 PM 55.4 °F - 42.8 °F 63% 30.14 in 10.0 mi South 15.0 mph - N/A   Clear
10:35 PM 53.6 °F - 42.8 °F 67% 30.14 in 10.0 mi South 15.0 mph - N/A   Clear
10:55 PM 53.6 °F - 42.8 °F 67% 30.14 in 10.0 mi South 13.8 mph - N/A   Scattered Clouds
11:15 PM 55.4 °F - 42.8 °F 63% 30.15 in 10.0 mi South 12.7 mph - N/A   Mostly Cloudy
11:35 PM 55.4 °F - 42.8 °F 63% 30.14 in 10.0 mi South 15.0 mph - N/A   Mostly Cloudy
11:55 PM 53.6 °F - 42.8 °F 67% 30.14 in 10.0 mi South 12.7 mph - N/A   Scattered Clouds